DW2610 Weather Reports


time (UTC)temp
C
wind
direction
speed
KPH
gust
KPH
rain 1hr
cm
rain 24hr
cm
rain mn
cm
humidity
%
barometer
mb
20260504173634 6 5 9.7 38.6 0.00 0.23 0.00 73 1011.8
20260504172641 6 254 12.9 38.6 0.00 0.23 0.00 71 1011.6
20260504171624 5 5 17.7 33.8 0.00 0.23 0.00 70 1011.6
20260504170644 6 351 12.9 30.6 0.00 0.23 0.00 69 1011.5
20260504160241 5 24 14.5 30.6 0.00 0.23 0.00 73 1011.5
20260504151106 5 5 8.0 29.0 0.00 0.23 0.00 73 1011.4
20260504150116 5 36 11.3 27.4 0.00 0.23 0.00 71 1011.4
20260504140940 4 313 9.7 20.9 0.00 0.23 0.00 80 1011.3
20260504100528 5 12 0.0 0.0 0.00 0.25 0.00 68 1009.4
20260504081226 6 355 0.0 0.0 0.00 0.25 0.00 70 1009.6
20260504080240 6 355 1.6 6.4 0.00 0.25 0.00 68 1009.8
20260504070226 4 5 0.0 3.2 0.00 0.25 0.00 80 1009.9
20260504050731 4 0 0.0 0.0 0.00 0.25 0.25 79 1010.6
20260504045737 5 26 0.0 1.6 0.00 0.25 0.25 79 1010.7
20260504044705 4 5 0.0 1.6 0.00 0.25 0.25 81 1010.7
20260504043717 3 290 0.0 3.2 0.00 0.25 0.25 84 1010.8
20260504042710 3 32 0.0 3.2 0.00 0.25 0.25 82 1010.9
20260504041647 5 27 0.0 4.8 0.00 0.25 0.25 80 1010.9
20260504040642 4 325 0.0 0.0 0.00 0.25 0.25 81 1010.8
20260504034459 5 10 0.0 3.2 0.00 0.25 0.25 82 1011.0
20260504033444 5 355 0.0 0.0 0.00 0.25 0.25 82 1011.0
20260504030140 7 351 0.0 3.2 0.00 0.25 0.25 73 1011.1
20260504025158 7 343 0.0 1.6 0.00 0.25 0.25 71 1010.9
20260504024146 7 343 0.0 3.2 0.00 0.25 0.25 71 1010.9
20260504023205 7 343 0.0 0.0 0.00 0.25 0.25 71 1010.8
20260504022131 6 343 0.0 3.2 0.00 0.25 0.25 74 1010.8
20260504020015 8 325 0.0 0.0 0.00 0.25 0.25 67 1010.8
20260504013900 10 256 0.0 0.0 0.00 0.25 0.25 59 1010.8
20260504012924 11 256 0.0 0.0 0.00 0.25 0.25 55 1011.0
20260504011917 12 258 1.6 11.3 0.00 0.25 0.25 51 1011.0
20260504005743 13 279 3.2 12.9 0.00 0.25 0.25 48 1011.3
20260504004754 13 355 4.8 16.1 0.00 0.25 0.25 49 1011.4
20260504003744 13 315 3.2 17.7 0.00 0.25 0.25 48 1011.4
20260504002805 13 319 3.2 17.7 0.00 0.25 0.25 49 1011.5
20260504000628 14 315 4.8 17.7 0.00 0.25 0.25 45 1011.7
20260503235620 14 343 3.2 19.3 0.00 0.25 0.25 48 1011.9
20260503232325 13 219 4.8 16.1 0.00 0.25 0.25 53 1012.0
20260503231253 13 274 6.4 16.1 0.00 0.25 0.25 56 1012.1
20260503225104 12 221 0.0 9.7 0.00 0.25 0.25 71 1012.4
20260503224128 12 204 0.0 0.0 0.00 0.25 0.25 76 1012.5
20260503223142 11 191 0.0 11.3 0.00 0.25 0.25 74 1012.7
20260503222153 11 215 0.0 0.0 0.00 0.25 0.25 81 1013.1
20260503221129 10 199 0.0 0.0 0.00 0.25 0.25 82 1013.4
20260503220152 10 213 0.0 1.6 0.00 0.25 0.25 82 1013.3
20260503214045 8 37 0.0 0.0 0.41 0.25 0.25 90 1013.8
20260503213046 7 273 0.0 4.8 0.30 0.23 0.23 86 1014.4
20260503212031 8 291 1.6 14.5 0.15 0.15 0.15 85 1014.4
20260503204813 10 69 4.8 17.7 0.00 0.08 0.08 70 1013.8
20260503203829 10 36 4.8 17.7 0.00 0.08 0.08 66 1014.1
20260503202822 11 355 0.0 6.4 0.00 0.08 0.08 63 1014.1
20260503201820 11 270 0.0 0.0 0.00 0.08 0.08 67 1014.3
20260503200748 10 257 8.0 0.0 0.00 0.08 0.08 69 1014.4
20260503195741 12 216 11.3 24.1 0.00 0.08 0.08 58 1014.5
20260503194759 13 223 3.2 16.1 0.00 0.08 0.08 56 1014.0
20260503192717 12 279 0.0 8.0 0.13 0.08 0.08 65 1014.2
20260503191710 10 25 3.2 20.9 0.53 0.05 0.08 71 1014.5
20260503185609 13 311 4.8 19.3 0.00 0.03 0.03 61 1014.7
20260503184606 12 68 0.0 3.2 0.00 0.03 0.03 60 1014.8
20260503183538 11 5 3.2 14.5 0.00 0.03 0.03 59 1015.0
20260503182537 12 24 8.0 24.1 0.00 0.03 0.03 54 1015.1
20260503181531 13 182 4.8 24.1 0.00 0.03 0.03 51 1015.1
20260503174259 12 242 1.6 16.1 0.00 0.03 0.03 55 1015.7